Weather in Kormilitsino

Russia / Yaroslavl Oblast     57°28′27″N   39°43′41″E
temp.,
°C
wind,
m/s
gust,
m/s
humid.,
%
clouds,
%
prec.,
mm/h
press.,
hPa
HPBL,
m
10 may, mon
mon1000:00+3nw49845 0.0 1019159
03:00+2nnw4108525 0.0 1022195
06:00+2nnw410790 0.0 1025290
09:00+8n58540 0.0 1026973
12:00+11n56430 0.0 10271421
15:00+13n45410 0.0 10271388
18:00+13ne23535 0.0 1027511
21:00+7nne22635 0.0 102910
11 may, tue
tue1100:00+5ne226941 0.0 102910
03:00+4ne227251 0.0 103013
06:00+6ene247470 0.0 1031113
09:00+12ene356024 0.0 1030467
12:00+15ene455067 0.0 1030899
15:00+17ene454640 0.0 10291028
18:00+17ene356017 0.0 1029243
21:00+11e337147 0.0 102937
12 may, wed
wed1200:00+10e227535 0.0 102928
03:00+9ene33845 0.0 102936
06:00+11ene36883 0.0 1029144
09:00+17ene46730 0.0 1028438
12:00+21e576446 0.0 10271001
15:00+22e685894 0.1 10251574
18:00+20e6126712 0.7 1024557
21:00+15ese498967 1.2 1024154
13 may, thu
thu1300:00+14se39888 0.0 1024222
03:00+12ese379219 0.0 1024122
06:00+13ese398893 0.0 1024283
09:00+16ese5118063 0.0 1023608
12:00+21se7105852 0.1 10221595
15:00+19sse5869100 0.7 1021848
18:00+14se41396100 7.4 1020683
21:00+14sse4109599 8.8 1020556
14 may, fri
fri1400:00+13s259795 0.1 1021136
03:00+13ssw2387100 0.1 102147
06:00+14sse128692 0.0 102178
09:00+16se2278100 0.0 1020565
12:00+19ese2364100 0.0 1019939
15:00+21se346195 0.0 10181493
18:00+19sse358010 0.1 1017244
21:00+16se3390100 0.1 101631